AO-07 1 07530U 74089B 24158.46864186 -.00000036 00000-0 65542-4 0 9992 2 07530 101.9774 153.0169 0012610 104.1937 20.8896 12.53676029267690 UO-11 1 14781U 84021B 24158.45569180 .00002682 00000-0 30748-3 0 9997 2 14781 97.7039 128.0503 0009705 108.6265 251.6006 14.86685699146896 AO-16 1 20439U 90005D 24158.52461789 .00000338 00000-0 13959-3 0 9998 2 20439 98.8993 163.3514 0009692 240.2173 235.7352 14.33384509795800 LO-19 1 20442U 90005G 24158.47499682 .00000336 00000-0 13843-3 0 9999 2 20442 98.8819 148.4612 0011008 212.5742 147.4763 14.33544717796245 AO-27 1 22825U 93061C 24158.41642806 .00000271 00000-0 12140-3 0 9990 2 22825 98.7890 211.0791 0009530 108.6017 251.6200 14.30500272601077 IO-26 1 22826U 93061D 24158.39786474 .00000304 00000-0 13306-3 0 9990 2 22826 98.7837 210.9240 0010114 95.5691 264.6645 14.30882022601352 FO-29 1 24278U 96046B 24158.54572910 -.00000018 00000-0 18922-4 0 9997 2 24278 98.5804 94.5966 0349530 215.6837 142.0481 13.53189834372999 NOAA-15 1 25338U 98030A 24158.57589866 .00000426 00000-0 19435-3 0 9992 2 25338 98.5687 185.9243 0010211 3.1288 356.9955 14.26595577355674 GO-32 1 25397U 98043D 24158.48731797 .00000197 00000-0 10558-3 0 9995 2 25397 98.9210 125.0509 0001531 144.6141 215.5139 14.24052203345898 ISS 1 25544U 98067A 24158.57932675 .00018530 00000-0 32097-3 0 9995 2 25544 51.6405 7.8504 0005827 281.5011 168.8243 15.50938054456903 NO-44 1 26931U 01043C 24157.95597896 .00000349 00000-0 16335-3 0 9993 2 26931 67.0520 0.5694 0006900 280.1742 79.8581 14.31243610184349 SO-50 1 27607U 02058C 24158.51697903 .00002648 00000-0 37428-3 0 9994 2 27607 64.5556 254.3447 0027369 118.4796 241.9070 14.78975719154749 CO-55 1 27844U 03031E 24158.47517645 .00000659 00000-0 31043-3 0 9995 2 27844 98.6765 165.6540 0009953 168.5260 191.6147 14.23263731 86262 CO-57 1 27848U 03031J 24158.47542804 .00000562 00000-0 27041-3 0 9990 2 27848 98.6796 165.9052 0009524 184.3980 175.7116 14.22705179 86018 RS-22 1 27939U 03042A 24158.59535975 .00002438 00000-0 41526-3 0 9995 2 27939 98.2896 314.6285 0013279 94.2211 335.1653 14.69935681106593 NOAA-18 1 28654U 05018A 24158.51738844 .00000378 00000-0 22500-3 0 9999 2 28654 98.8744 235.5706 0015367 94.2387 266.0542 14.13224187981668 CO-58 1 28895U 05043F 24157.31011603 .00002658 00000-0 47507-3 0 9995 2 28895 98.1998 293.1217 0016231 39.0997 321.1377 14.67675833992715 CO-65 1 32785U 08021C 24158.52062747 .00008415 00000-0 74170-3 0 9999 2 32785 97.7539 123.9377 0011248 14.0188 346.1344 14.96645708873886 AAUSAT2 1 32788U 08021F 24158.49200909 .00026970 00000-0 13620-2 0 9990 2 32788 97.5937 138.7035 0005382 179.1829 180.9413 15.17049677876703 CO-66 1 32791U 08021J 24157.62260025 .00011135 00000-0 81713-3 0 9999 2 32791 97.6875 128.8601 0005341 8.8306 351.3012 15.03641762874784 RS-30 1 32953U 08025A 24158.60929487 .00000033 00000-0 16156-3 0 9990 2 32953 82.5023 96.0652 0020223 125.0132 235.2849 12.43142025727671 PRISM 1 33493U 09002B 24158.38316419 .00026156 00000-0 12506-2 0 9994 2 33493 98.2057 205.0777 0010736 281.0725 78.9300 15.18936740837408 NOAA-19 1 33591U 09005A 24158.53805593 .00000335 00000-0 20415-3 0 9999 2 33591 99.0475 214.2243 0013075 325.8880 34.1451 14.13020458789869 SRMSAT 1 37841U 11058D 24158.50429689 .00000565 00000-0 16448-3 0 9993 2 37841 19.9708 221.3993 0011795 338.1589 51.2150 14.11121394653058 HRBE 1 37855U 11061F 24158.05330007 .00341357 44255-4 15679-2 0 9992 2 37855 101.6862 337.9292 0033204 351.7696 8.3008 15.82729887691291 RS-40 1 38735U 12041C 24158.54975740 .00000055 00000-0 32800-3 0 9991 2 38735 82.4752 176.5150 0016166 239.4959 120.4524 12.42609616537855 ZACUBE-1 1 39417U 13066B 24158.57060493 .00006230 00000-0 65014-3 0 9994 2 39417 97.7339 114.7799 0050236 193.4663 166.5217 14.89147553570007 Delfi-N3xt 1 39428U 13066N 24158.50467097 .00008837 00000-0 11278-2 0 9997 2 39428 97.8399 77.1224 0102869 122.7072 238.4109 14.77970970564512 GOMX-1 1 39430U 13066Q 24158.52523372 .00002938 00000-0 49432-3 0 9991 2 39430 97.7338 33.5538 0138635 287.0065 71.5986 14.64147949561488 LO-74 1 39440U 13066AA 24158.58638852 .00006860 00000-0 81041-3 0 9998 2 39440 97.8131 102.4851 0068470 309.9171 49.6038 14.83302019566768 AO-73 1 39444U 13066AE 24158.41582924 .00007264 00000-0 70640-3 0 9994 2 39444 97.7183 117.7249 0048405 174.6400 185.5347 14.91968021568503 SPROUT 1 39770U 14029E 24158.39060625 .00167905 00000-0 35292-2 0 9994 2 39770 98.0082 309.8638 0008835 229.5376 130.5101 15.44649377545982 DTUSAT-2 1 40030U 14033W 24158.59886071 .00008590 00000-0 72653-3 0 9990 2 40030 98.0062 110.7613 0010044 180.8926 179.2279 14.98265763541116 EO-80 1 40032U 14033Y 24158.43437631 .00007830 00000-0 66191-3 0 9995 2 40032 98.0083 110.6037 0009131 177.2110 182.9164 14.98325331541066 XW-2C 1 40906U 15049H 24158.54645659 .00034963 00000-0 81964-3 0 9998 2 40906 97.4775 175.0826 0006777 356.1691 3.9503 15.41979215482836 XW-2D 1 40907U 15049J 24158.55105227 .00054058 00000-0 99059-3 0 9993 2 40907 97.4708 177.4892 0004114 344.1842 15.9279 15.49130478483056 LILACSAT-2 1 40908U 15049K 24158.57365750 .00012678 00000-0 49179-3 0 9995 2 40908 97.5228 167.2069 0013138 36.3556 323.8572 15.26175543481878 XW-2B 1 40911U 15049N 24158.57227251 .00051182 00000-0 96232-3 0 9997 2 40911 97.4690 177.6230 0004318 345.3116 14.8008 15.48404520482926 IO-86 1 40931U 15052B 24154.23373250 .00001278 00000-0 85541-4 0 9996 2 40931 5.9987 99.5575 0013348 231.3428 128.5504 14.77856046469359 ChubuSat-2 1 41338U 16012B 24158.22964843 .00007324 00000-0 45561-3 0 9997 2 41338 31.0008 101.3330 0010971 127.9431 232.2200 15.08202760455948 ChubuSat-3 1 41339U 16012C 24158.23479856 .00006400 00000-0 40361-3 0 9991 2 41339 31.0074 99.7138 0011027 132.7396 227.4171 15.07638154455835 Horyu-4 1 41340U 16012D 24158.07980886 .00015444 00000-0 77301-3 0 9997 2 41340 31.0037 47.9852 0009769 224.7647 135.2205 15.16169150456464 Lapan A3 1 41603U 16040E 24158.54803071 .00004832 00000-0 19487-3 0 9992 2 41603 97.1414 172.7501 0013478 133.5760 226.6600 15.25179848441600 Pratham 1 41783U 16059A 24158.33875309 .00001546 00000-0 29541-3 0 9992 2 41783 97.8365 178.1851 0033771 56.7413 303.7019 14.64876793410958 CAS-2T 1 41847U 16066G 24158.47719744 .00002349 00000-0 35197-3 0 9992 2 41847 98.4606 229.8560 0353724 209.4592 148.6247 14.41209416397953 CAS-4B 1 42759U 17034B 24158.58814029 .00020758 00000-0 75273-3 0 9998 2 42759 43.0179 286.4490 0013304 278.6300 81.3045 15.27894997385786 CAS-4A 1 42761U 17034D 24158.59019752 .00022148 00000-0 79986-3 0 9992 2 42761 43.0223 284.7925 0012138 287.3365 72.6159 15.28010257385784 Aalto 1 1 42775U 17036L 24157.53322544 .00102006 00000-0 99223-3 0 9996 2 42775 97.1030 187.0326 0005274 202.6713 157.4316 15.65943847387280 URSA MAIOR 1 42776U 17036M 24158.34332085 .00356894 48015-4 13087-2 0 9999 2 42776 97.0958 192.1690 0007853 197.3122 162.7884 15.88258002387689 Max Valier Sat 1 42778U 17036P 24158.08574438 .00348858 46024-4 12655-2 0 9991 2 42778 97.0843 195.9855 0006261 193.3915 166.7193 15.88496171387820 D-SAT 1 42794U 17036AF 24158.46589664 .00005531 00000-0 38884-3 0 9999 2 42794 97.4861 140.7557 0110352 183.5248 176.5211 15.00621208379114 TechnoSat 1 42829U 17042E 24158.48477174 .00004331 00000-0 38482-3 0 9990 2 42829 97.3830 340.1557 0013725 108.5751 251.6963 14.96539445375576 AO-91 1 43017U 17073E 24158.20034385 .00012395 00000-0 77019-3 0 9995 2 43017 97.5797 34.0779 0209939 330.9315 28.0345 14.93257119354025 TianYi 2 1 43155U 18008A 24158.60533282 .00131527 00000-0 16654-2 0 9997 2 43155 97.2356 212.4008 0007628 132.5076 227.6826 15.59014055353252 Zhou Enlai 1 43156U 18008B 24158.58628354 .00266292 00000-0 20155-2 0 9999 2 43156 97.2378 214.2800 0005145 166.6858 193.4542 15.71598185353288 TianYi 6 1 43158U 18008D 24158.39541304 .00065925 00000-0 13251-2 0 9998 2 43158 97.2551 206.9667 0008823 134.0076 226.1903 15.46371272352809 S-Net D 1 43186U 18014G 24158.47853774 .00007899 00000-0 56795-3 0 9999 2 43186 97.5925 60.5067 0011584 48.7895 311.4328 15.04463147346892 S-Net B 1 43187U 18014H 24158.48075489 .00007944 00000-0 57118-3 0 9991 2 43187 97.5931 60.4578 0012319 44.0308 316.1897 15.04454868346894 S-Net A 1 43188U 18014J 24158.28016896 .00007616 00000-0 54778-3 0 9992 2 43188 97.5936 60.3724 0012221 45.4143 314.8078 15.04460048346866 S-Net C 1 43189U 18014K 24158.28337012 .00007547 00000-0 54271-3 0 9990 2 43189 97.5950 60.3210 0013719 37.7668 322.4518 15.04452282345417 Ten-Koh 1 43677U 18084G 24158.37274388 .00004963 00000-0 44734-3 0 9997 2 43677 98.0611 311.5873 0015099 57.6139 302.6540 14.95961303305107 PO-101 1 43678U 18084H 24158.56767783 .00002720 00000-0 25254-3 0 9990 2 43678 98.0698 316.2459 0010072 70.0262 290.2042 14.95255291305333 QO-100 1 43700U 18090A 24158.56875286 .00000146 00000-0 00000-0 0 9990 2 43700 0.0172 6.9747 0001567 108.8161 10.2183 1.00272568 20258 MinXSS-2 1 43758U 18099A 24158.42459977 .00012943 00000-0 82299-3 0 9993 2 43758 97.5549 220.9484 0016116 0.7046 359.4203 15.08840747301160 AO-95 1 43770U 18099N 24158.14085394 .00009469 00000-0 65818-3 0 9991 2 43770 97.5461 216.2226 0014671 46.9369 313.3084 15.05641862300904 RANGE-B 1 43772U 18099Q 24158.45559710 .00016199 00000-0 10081-2 0 9994 2 43772 97.5246 219.9669 0004079 310.3492 49.7380 15.09675664301107 RANGE-A 1 43773U 18099R 24158.11515043 .00006282 00000-0 47959-3 0 9996 2 43773 97.4983 211.7125 0014070 15.2575 344.9072 15.02247362300770 MOVE-II 1 43780U 18099Y 24158.13192204 .00023687 00000-0 12555-2 0 9997 2 43780 97.5220 221.2244 0006121 29.4797 330.6779 15.15366608301251 SNUSat 2 1 43782U 18099AA 24158.41499560 .00008652 00000-0 61545-3 0 9994 2 43782 97.5147 215.7014 0013778 346.5937 13.4921 15.04813945300959 SnugLite 1 43784U 18099AC 24158.44121786 .00011046 00000-0 76190-3 0 9994 2 43784 97.4955 215.0737 0004016 4.8719 355.2546 15.05965228301021 ITASat 1 1 43786U 18099AE 24158.41652352 .00008087 00000-0 58500-3 0 9997 2 43786 97.5118 215.9848 0018143 35.6318 324.6115 15.04144405300958 EAGLET 1 1 43790U 18099AJ 24158.45326494 .00006601 00000-0 49743-3 0 9990 2 43790 97.5269 216.5006 0013840 9.0515 351.0957 15.02729136300660 ESEO 1 43792U 18099AL 24158.39588577 .00002379 00000-0 19760-3 0 9991 2 43792 97.5180 213.3845 0013248 8.9451 351.2006 14.99612771300588 CSIM 1 43793U 18099AM 24158.44919841 .00022307 00000-0 11846-2 0 9999 2 43793 97.5303 223.2536 0011486 354.5543 5.5563 15.15271348301158 JO-97 1 43803U 18099AX 24158.41246151 .00011059 00000-0 73744-3 0 9993 2 43803 97.5209 217.3223 0008949 348.9212 11.1818 15.07198588301074 Suomi 100 1 43804U 18099AY 24158.12622194 .00010295 00000-0 69981-3 0 9996 2 43804 97.5273 216.8442 0015075 343.5909 16.4828 15.06445382301014 ISAT 1 43879U 18111D 24158.47876903 .00015990 00000-0 97744-3 0 9995 2 43879 97.6217 64.2333 0014462 43.5648 316.6721 15.10255111297807 UWE-4 1 43880U 18111E 24158.25931007 .00013114 00000-0 82212-3 0 9990 2 43880 97.6137 64.0616 0018389 51.4423 308.8450 15.09325331297782 Sparrow 1 43881U 18111F 24158.25468391 .00014047 00000-0 84835-3 0 9991 2 43881 97.6298 65.8910 0012495 80.9355 279.3288 15.10746709297835 AISat 1 1 44104U 19018AC 24158.56308278 .00352586 52888-4 78621-3 0 9992 2 44104 97.3608 269.2457 0008293 342.8480 17.2515 15.97786519291184 Prox-1 1 44339U 19036A 24158.56408460 .00013826 00000-0 23922-2 0 9995 2 44339 24.0007 293.7671 0007896 241.9920 117.9775 14.66648991263686 SONATE 1 44400U 19038Q 24158.50514910 .00024134 00000-0 73753-3 0 9990 2 44400 97.7109 152.1270 0018098 138.6327 221.6289 15.33717096272442 JAISAT-1 1 44419U 19038F 24158.28639546 .02059560 42966-2 19451-2 0 9994 2 44419 97.6525 167.3044 0008540 186.6105 173.5069 16.13040894273488 Taurus 1 1 44530U 19059C 24158.58089803 .00009323 00000-0 21605-2 0 9994 2 44530 98.5754 278.4678 0012450 91.6460 268.6162 14.55230974250228 Duchifat 3 1 44854U 19089C 24158.26000096 .00020406 00000-0 10386-2 0 9997 2 44854 36.9564 115.3473 0006553 336.8001 23.2449 15.16081428246613 TO-108 1 44881U 19093C 24158.52047181 .00001749 00000-0 21752-3 0 9996 2 44881 97.8285 235.5082 0014329 3.5955 356.5359 14.83725191241461 FloripaSat 1 1 44885U 19093G 24158.53981711 .00006969 00000-0 72457-3 0 9994 2 44885 97.8413 241.1947 0012053 356.2050 3.9074 14.90144797241784 RS-44 1 44909U 19096E 24158.40153897 .00000012 00000-0 -34920-5 0 9995 2 44909 82.5200 111.9428 0218737 76.4698 286.0669 12.79730298207597 BY70-2 1 45857U 20042B 24158.60722238 .00165230 00000-0 58212-2 0 9994 2 45857 97.9078 251.4645 0011929 238.7428 121.2642 15.28524892212935 UPMSat 2 1 46276U 20061E 24158.46463631 .00020621 00000-0 63554-3 0 9994 2 46276 97.2982 224.8383 0002480 136.4650 223.6788 15.33632861208535 AmicalSat 1 46287U 20061R 24158.17300216 .00039142 00000-0 10927-2 0 9996 2 46287 97.3503 225.4333 0001627 207.2488 152.8672 15.36620743207877 SALSAT 1 46495U 20068K 24158.42851969 .00009228 00000-0 52521-3 0 9997 2 46495 97.8161 117.4511 0013590 359.1033 1.0171 15.13002424202684 UVSQ-SAT 1 47438U 21006AB 24158.43362071 .00062217 00000-0 12281-2 0 9995 2 47438 97.3268 218.7796 0006308 232.1620 127.9059 15.46936098187073 YUSAT 1 1 47439U 21006AC 24158.41782372 .00191574 00000-0 17471-2 0 9999 2 47439 97.3218 223.2394 0007973 219.7510 140.3168 15.67251590187364 SOMP 2b 1 47445U 21006AJ 24158.41361680 .00052040 00000-0 11356-2 0 9991 2 47445 97.3238 217.1104 0005869 242.7261 117.3390 15.44037164186998 IDEASSat 1 47458U 21006AX 24158.43548827 .00045685 00000-0 10897-2 0 9993 2 47458 97.3345 217.6899 0005636 245.9529 114.1128 15.41403817186938 CubeSX-Sirius-HSE 1 47951U 21022V 24158.61346241 .00024885 00000-0 98737-3 0 9994 2 47951 97.4621 57.0074 0015061 166.5919 193.5722 15.25246036176962 CubeSX-HSE 1 47952U 21022W 24158.56763341 .00023571 00000-0 93240-3 0 9998 2 47952 97.4622 57.0510 0015065 165.6536 194.5132 15.25358175176962 KSU-Cubesat 1 47954U 21022Y 24158.44512957 .00028791 00000-0 10445-2 0 9996 2 47954 97.4632 58.1987 0014250 160.5394 199.6393 15.28197086176742 GRBAlpha 1 47959U 21022AD 24158.59823853 .00025333 00000-0 99864-3 0 9999 2 47959 97.4626 57.2298 0014875 165.7571 194.4089 15.25461843175793 Orbicraft-Zorkiy 1 47960U 21022AE 24158.60519417 .00028711 00000-0 10688-2 0 9990 2 47960 97.4669 58.4789 0014246 162.2627 197.9112 15.27348160176543 STECCO 1 47962U 21022AG 24158.57192254 .00147961 00000-0 20098-2 0 9999 2 47962 97.4615 67.6531 0011440 122.9530 237.2826 15.57034662176476 MO-110 1 47964U 21022AJ 24158.49148292 .00221924 00000-0 23343-2 0 9993 2 47964 97.4637 69.3283 0012604 122.8883 237.3590 15.63500680176562 TUBIN 1 48900U 21059X 24158.59312889 .00019889 00000-0 68906-3 0 9990 2 48900 97.6446 302.9218 0008004 123.0721 237.1289 15.29852011163301 LEDSAT 1 49069U 21073D 24158.16034883 .00019334 00000-0 78560-3 0 9993 2 49069 97.4386 229.3674 0017972 324.5717 35.4325 15.24455530154775 CUTE 1 49263U 21088D 24158.13471865 .00023857 00000-0 11272-2 0 9998 2 49263 97.4980 224.2013 0015989 119.5526 240.7304 15.19295911147968 TeikyoSat 4 1 49396U 21102B 24158.40300952 .00003772 00000-0 27455-3 0 9995 2 49396 97.4607 203.7530 0012261 317.0794 42.9475 15.04317154141131 Z-Sat 1 49399U 21102E 24158.52580466 .00005891 00000-0 38181-3 0 9993 2 49399 97.4319 205.3966 0018644 296.2116 63.7196 15.08339798141382 KOSEN 1 1 49402U 21102H 24158.38953700 .00007858 00000-0 46800-3 0 9999 2 49402 97.4243 206.6653 0017080 278.7652 81.1644 15.11349835141517 HO-113 1 50466U 21131B 24158.56163468 .00001091 00000-0 36294-3 0 9996 2 50466 98.5281 243.6801 0004937 146.4354 213.7147 14.39642427128479 Tevel-3 1 50988U 22002E 24158.46131039 .00175751 00000-0 17762-2 0 9994 2 50988 97.3777 233.8091 0001582 213.2403 146.8757 15.64752776133374 Tevel-8 1 50989U 22002F 24158.56601177 .00186130 00000-0 18910-2 0 9990 2 50989 97.3801 234.0107 0001499 209.5754 150.5421 15.64586214133381 Tevel-5 1 50998U 22002Q 24158.49179158 .00247826 00000-0 19106-2 0 9999 2 50998 97.3758 235.2172 0003018 241.5033 118.5927 15.71217006133475 Tevel-6 1 50999U 22002R 24158.56439865 .00255355 00000-0 19883-2 0 9990 2 50999 97.3750 235.2512 0002898 242.3674 117.7294 15.70956346133486 Tevel-1 1 51013U 22002AF 24158.55552684 .00190159 00000-0 19350-2 0 9991 2 51013 97.3766 233.7625 0001486 221.3293 138.7854 15.64533055133380 IRIS-A 1 51044U 22002BN 24158.14232188 .00024486 00000-0 81429-3 0 9990 2 51044 97.3854 224.6917 0007193 81.7453 278.4604 15.31138319132733 Tevel-7 1 51062U 22002CG 24158.48874015 .00186978 00000-0 18858-2 0 9998 2 51062 97.3784 233.9063 0001562 223.2323 136.8814 15.64768888133370 Tevel-4 1 51063U 22002CH 24158.46770094 .00176896 00000-0 18290-2 0 9997 2 51063 97.3788 233.7744 0001353 222.0389 138.0767 15.64168882133364 Tevel-2 1 51069U 22002CP 24158.58664669 .00185717 00000-0 18679-2 0 9999 2 51069 97.3773 233.9083 0001638 218.6439 141.4704 15.64843120133392 OreSat0 1 52017U 22026K 24158.51182651 .00085293 00000-0 13997-2 0 9994 2 52017 97.4943 172.3182 0010297 239.4230 120.6007 15.52076856124052 Planetum 1 1 52738U 22057G 24158.61641047 .00050440 00000-0 12371-2 0 9999 2 52738 97.5656 284.3856 0006304 186.6053 173.5111 15.40532193112942 Foresail-1 1 52766U 22057AL 24158.28172411 .00024508 00000-0 80408-3 0 9990 2 52766 97.5821 283.5369 0010309 166.2224 193.9300 15.31550747112784 SNUGLITE 2 1 52899U 22065F 24158.64385754 .00002183 00000-0 45624-3 0 9998 2 52899 98.1183 299.9941 0007837 177.1770 182.9476 14.60799141102724 IO-117 1 53106U 22080B 24150.13546523 -.00000003 00000-0 00000-0 0 9992 2 53106 70.1363 199.1393 0007665 111.3674 248.7804 6.42557538 44049 SelfieSat 1 53951U 22057BC 24158.33412335 .00102934 00000-0 15913-2 0 9993 2 53951 97.5672 287.6876 0007018 193.9264 166.1796 15.53704084113104 FO-118 1 54684U 22167C 24158.60466290 .00034383 00000-0 11963-2 0 9991 2 54684 97.6043 303.1863 0011013 180.8430 179.2793 15.29567618 82684 SSS-2B 1 56184U 23054G 24158.56621007 .00041999 00000-0 10411-2 0 9996 2 56184 97.3711 56.4712 0006524 186.9738 173.1418 15.40249928 64502 CIRBE 1 56188U 23054L 24158.26905965 .00082280 00000-0 13976-2 0 9992 2 56188 97.3644 57.9077 0005968 166.8624 193.2785 15.51158774 64592 INSPIRE-Sat 7 1 56211U 23054AK 24158.46511489 .00085870 00000-0 13622-2 0 9991 2 56211 97.3657 59.3380 0009863 152.4764 207.7013 15.53025993 64694 RoseyCubesat 1 1 56212U 23054AL 24158.56043110 .00113508 00000-0 15421-2 0 9993 2 56212 97.3671 60.1576 0010445 150.5793 209.6052 15.57161887 64755 SO-120 1 56992U 23084BU 24158.57845613 .00035951 00000-0 13289-2 0 9995 2 56992 97.5311 277.8275 0012310 67.3927 292.8613 15.27556695 54560 MRC-100 1 56993U 23084BV 24158.30172169 .00040924 00000-0 14243-2 0 9993 2 56993 97.5316 277.9131 0011306 67.3052 292.9382 15.29514784 54559 UmKA 1 (RS40S) 1 57172U 23091G 24158.57899255 .00007562 00000-0 50139-3 0 9998 2 57172 97.6116 210.7323 0017745 154.1816 206.0301 15.07430010 51898 CubeBel-2 (EU11S) 1 57175U 23091K 24158.60005135 .00010502 00000-0 68311-3 0 9990 2 57175 97.6124 210.6928 0016083 164.1585 196.0149 15.08062409 51890 VERONIKA 1 58261U 23174F 24158.47103444 .00022185 00000-0 10078-2 0 9992 2 58261 97.4615 233.3565 0010918 277.3640 82.6354 15.20729460 32088 KAFASAT 1 58317U 23174BP 24158.57454653 .00029445 00000-0 12179-2 0 9996 2 58317 97.4558 233.9858 0010441 250.7936 109.2171 15.23868358 32144 ENSO 1 58470U 23185J 24158.55769822 .00019592 00000-0 83571-3 0 9990 2 58470 97.4273 225.3922 0011223 318.8558 41.1831 15.22903462 28529 EIRSAT-1 1 58472U 23185L 24158.60039560 .00022270 00000-0 93482-3 0 9996 2 58472 97.4267 225.4688 0010770 319.0752 40.9676 15.23424834 28536 SO-121 1 58567U 23174CY 24158.19523222 .00056429 00000-0 20104-2 0 9999 2 58567 97.4551 233.8968 0011981 257.0440 102.9461 15.28659344 32101 SONATE-2 1 59112U 24043Q 24158.29645395 .00013453 00000-0 65585-3 0 9992 2 59112 97.4779 282.2578 0014211 335.8529 24.2037 15.18357466 14156 KASHIWA 1 59508U 98067WH 24158.59067341 .00158737 00000-0 15956-2 0 9991 2 59508 51.6325 5.1166 0007700 252.4976 107.5178 15.64389136 8833 /EX